| time (UTC) | temp F | wind direction | speed knots | gust knots | rain 1hr in | rain 24hr in | rain mn in | humidity % | barometer mb |
| 20260901030028 | 58 | 94 | 0.0 | 0.0 | 0.00 | 0.04 | 0.00 | 89 | 1022.0 |
| 20260901024531 | 58 | 94 | 0.0 | 0.0 | 0.00 | 0.04 | 0.00 | 89 | 1021.9 |
| 20260901023032 | 58 | 94 | 0.0 | 0.0 | 0.00 | 0.04 | 0.00 | 88 | 1021.9 |
| 20260901021529 | 59 | 94 | 0.0 | 0.0 | 0.00 | 0.04 | 0.00 | 88 | 1021.9 |
| 20260901020025 | 59 | 94 | 0.0 | 0.0 | 0.00 | 0.04 | 0.00 | 87 | 1021.8 |
| 20260901014526 | 59 | 94 | 0.0 | 0.0 | 0.00 | 0.04 | 0.00 | 86 | 1021.9 |
| 20260901013026 | 60 | 94 | 0.0 | 0.0 | 0.00 | 0.04 | 0.00 | 86 | 1022.0 |
| 20260901011525 | 60 | 94 | 0.0 | 0.0 | 0.00 | 0.04 | 0.00 | 85 | 1022.1 |
| 20260901010025 | 61 | 94 | 0.0 | 0.0 | 0.00 | 0.04 | 0.00 | 83 | 1022.1 |
| 20260901004532 | 62 | 94 | 0.0 | 0.0 | 0.00 | 0.04 | 0.00 | 81 | 1022.1 |
| 20260901003026 | 63 | 94 | 0.0 | 0.0 | 0.00 | 0.04 | 0.00 | 79 | 1021.9 |
| 20260901001527 | 63 | 94 | 0.0 | 0.0 | 0.00 | 0.04 | 0.00 | 78 | 1021.8 |
| 20260901000023 | 64 | 94 | 0.0 | 0.0 | 0.00 | 0.04 | 0.00 | 78 | 1021.8 |
| 20260831234522 | 65 | 94 | 0.0 | 0.0 | 0.00 | 0.04 | 0.00 | 76 | 1021.8 |
| 20260831233023 | 65 | 54 | 0.0 | 0.0 | 0.00 | 0.04 | 0.00 | 75 | 1021.9 |
| 20260831231524 | 67 | 54 | 0.0 | 0.0 | 0.00 | 0.04 | 0.00 | 73 | 1021.9 |
| 20260831230020 | 68 | 54 | 0.0 | 0.0 | 0.00 | 0.04 | 0.00 | 71 | 1022.0 |
| 20260831224520 | 69 | 72 | 0.0 | 0.0 | 0.00 | 0.04 | 0.00 | 71 | 1022.0 |
| 20260831223021 | 69 | 96 | 0.0 | 0.0 | 0.00 | 0.04 | 0.00 | 71 | 1022.0 |
| 20260831221530 | 69 | 63 | 0.0 | 0.0 | 0.00 | 0.04 | 0.00 | 70 | 1021.9 |
| 20260831220018 | 69 | 81 | 0.0 | 0.0 | 0.00 | 0.04 | 0.00 | 69 | 1021.9 |
| 20260831214533 | 70 | 72 | 0.0 | 0.0 | 0.00 | 0.04 | 0.00 | 66 | 1021.8 |
| 20260831213017 | 71 | 250 | 0.0 | 0.0 | 0.00 | 0.04 | 0.00 | 63 | 1021.9 |
| 20260831211521 | 71 | 214 | 0.0 | 0.0 | 0.00 | 0.04 | 0.00 | 64 | 1022.1 |
| 20260831210016 | 72 | 86 | 0.0 | 0.0 | 0.00 | 0.04 | 0.00 | 63 | 1022.0 |
| 20260831204516 | 72 | 88 | 0.0 | 0.0 | 0.00 | 0.04 | 0.00 | 62 | 1022.2 |
| 20260831203015 | 73 | 141 | 0.0 | 0.0 | 0.00 | 0.04 | 0.00 | 62 | 1022.2 |
| 20260831201523 | 73 | 27 | 0.0 | 0.0 | 0.00 | 0.04 | 0.00 | 60 | 1022.2 |
| 20260831200025 | 73 | 59 | 0.0 | 0.0 | 0.00 | 0.04 | 0.00 | 59 | 1022.2 |
| 20260831194513 | 73 | 118 | 0.0 | 0.9 | 0.00 | 0.04 | 0.00 | 58 | 1022.2 |
| 20260831193012 | 73 | 79 | 0.0 | 0.9 | 0.00 | 0.04 | 0.00 | 54 | 1022.4 |
| 20260831191511 | 75 | 80 | 0.0 | 0.9 | 0.00 | 0.04 | 0.00 | 56 | 1022.7 |
| 20260831190013 | 75 | 87 | 0.0 | 0.0 | 0.00 | 0.04 | 0.00 | 55 | 1022.7 |
| 20260831184517 | 76 | 229 | 0.0 | 0.0 | 0.00 | 0.04 | 0.00 | 54 | 1022.8 |
| 20260831183010 | 75 | 74 | 0.0 | 0.0 | 0.00 | 0.04 | 0.00 | 53 | 1022.9 |
| 20260831181509 | 74 | 255 | 0.0 | 1.7 | 0.00 | 0.04 | 0.00 | 54 | 1023.0 |
| 20260831180008 | 74 | 82 | 0.0 | 0.0 | 0.00 | 0.04 | 0.00 | 54 | 1023.0 |
| 20260831174509 | 74 | 93 | 0.0 | 0.0 | 0.00 | 0.04 | 0.00 | 53 | 1023.3 |
| 20260831173007 | 74 | 169 | 0.0 | 0.9 | 0.00 | 0.04 | 0.00 | 53 | 1023.3 |
| 20260831171506 | 75 | 96 | 0.0 | 0.9 | 0.00 | 0.04 | 0.00 | 52 | 1023.4 |
| 20260831170007 | 76 | 102 | 0.0 | 2.6 | 0.00 | 0.04 | 0.00 | 51 | 1023.5 |
| 20260831164505 | 76 | 247 | 0.0 | 0.0 | 0.00 | 0.04 | 0.00 | 50 | 1023.6 |
| 20260831163010 | 75 | 78 | 0.0 | 0.0 | 0.00 | 0.04 | 0.00 | 51 | 1023.8 |
| 20260831161504 | 75 | 110 | 0.0 | 0.0 | 0.00 | 0.04 | 0.00 | 54 | 1024.0 |
| 20260831160104 | 74 | 120 | 0.0 | 0.0 | 0.00 | 0.04 | 0.00 | 55 | 1024.3 |
| 20260831154616 | 74 | 104 | 0.0 | 0.9 | 0.00 | 0.04 | 0.00 | 54 | 1024.3 |
| 20260831153057 | 73 | 246 | 0.0 | 0.0 | 0.00 | 0.04 | 0.00 | 61 | 1024.4 |
| 20260831151555 | 73 | 97 | 0.0 | 0.0 | 0.00 | 0.04 | 0.00 | 60 | 1024.5 |
| 20260831150053 | 72 | 97 | 0.0 | 0.0 | 0.00 | 0.04 | 0.00 | 56 | 1024.5 |
| 20260831144552 | 72 | 244 | 0.0 | 0.0 | 0.00 | 0.04 | 0.00 | 61 | 1024.4 |
| 20260831143059 | 71 | 94 | 0.0 | 0.0 | 0.00 | 0.04 | 0.00 | 60 | 1024.5 |
| 20260831141548 | 70 | 259 | 0.0 | 0.0 | 0.00 | 0.04 | 0.00 | 61 | 1024.6 |
| 20260831140045 | 70 | 345 | 0.0 | 0.0 | 0.00 | 0.04 | 0.00 | 61 | 1024.6 |
| 20260831134544 | 70 | 77 | 0.0 | 0.0 | 0.00 | 0.04 | 0.00 | 61 | 1024.6 |
| 20260831133041 | 68 | 98 | 0.0 | 0.0 | 0.00 | 0.04 | 0.00 | 72 | 1024.5 |
| 20260831131543 | 68 | 112 | 0.0 | 0.0 | 0.00 | 0.04 | 0.00 | 73 | 1024.3 |
| 20260831130038 | 66 | 341 | 0.0 | 0.0 | 0.00 | 0.04 | 0.00 | 86 | 1024.3 |
| 20260831124538 | 64 | 308 | 0.0 | 0.0 | 0.00 | 0.04 | 0.00 | 91 | 1024.5 |
| 20260831123028 | 62 | 307 | 0.0 | 0.0 | 0.00 | 0.04 | 0.00 | 92 | 1024.4 |
| 20260831121527 | 60 | 307 | 0.0 | 0.0 | 0.00 | 0.04 | 0.00 | 93 | 1024.2 |
| 20260831120047 | 59 | 307 | 0.0 | 0.0 | 0.00 | 0.04 | 0.00 | 94 | 1024.0 |
| 20260831114526 | 57 | 307 | 0.0 | 0.0 | 0.00 | 0.04 | 0.00 | 95 | 1024.0 |
| 20260831113026 | 55 | 307 | 0.0 | 0.0 | 0.00 | 0.04 | 0.00 | 95 | 1024.2 |
| 20260831111524 | 54 | 307 | 0.0 | 0.0 | 0.00 | 0.04 | 0.00 | 95 | 1024.1 |
| 20260831110026 | 54 | 307 | 0.0 | 0.0 | 0.00 | 0.04 | 0.00 | 94 | 1024.1 |
| 20260831104522 | 54 | 307 | 0.0 | 0.0 | 0.00 | 0.04 | 0.00 | 94 | 1023.9 |
| 20260831103024 | 54 | 307 | 0.0 | 0.0 | 0.00 | 0.04 | 0.00 | 95 | 1023.9 |
| 20260831101519 | 54 | 307 | 0.0 | 0.0 | 0.00 | 0.04 | 0.00 | 94 | 1023.6 |
| 20260831100017 | 54 | 307 | 0.0 | 0.0 | 0.00 | 0.04 | 0.00 | 94 | 1023.4 |
| 20260831094515 | 54 | 307 | 0.0 | 0.0 | 0.00 | 0.04 | 0.00 | 94 | 1023.1 |
| 20260831093015 | 55 | 307 | 0.0 | 0.0 | 0.00 | 0.04 | 0.00 | 94 | 1023.1 |
| 20260831091511 | 55 | 307 | 0.0 | 0.0 | 0.00 | 0.04 | 0.00 | 94 | 1022.9 |
| 20260831090009 | 56 | 307 | 0.0 | 0.0 | 0.00 | 0.04 | 0.00 | 94 | 1022.7 |
| 20260831084510 | 56 | 307 | 0.0 | 0.0 | 0.00 | 0.04 | 0.00 | 94 | 1022.6 |
| 20260831083005 | 56 | 307 | 0.0 | 0.0 | 0.00 | 0.04 | 0.00 | 94 | 1022.6 |
| 20260831081502 | 57 | 307 | 0.0 | 0.0 | 0.00 | 0.04 | 0.00 | 94 | 1022.5 |
| 20260831080002 | 57 | 307 | 0.0 | 0.0 | 0.00 | 0.04 | 0.00 | 94 | 1022.4 |
| 20260831074558 | 58 | 307 | 0.0 | 0.0 | 0.00 | 0.04 | 0.00 | 94 | 1022.2 |
| 20260831073058 | 58 | 307 | 0.0 | 0.0 | 0.00 | 0.04 | 0.00 | 93 | 1022.0 |
| 20260831071557 | 58 | 307 | 0.0 | 0.0 | 0.00 | 0.04 | 0.00 | 93 | 1021.9 |
| 20260831070053 | 59 | 307 | 0.0 | 0.0 | 0.00 | 0.04 | 0.00 | 93 | 1021.9 |
| 20260831064551 | 59 | 307 | 0.0 | 0.0 | 0.00 | 0.04 | 0.00 | 93 | 1021.7 |
| 20260831063049 | 59 | 307 | 0.0 | 0.0 | 0.00 | 0.04 | 0.00 | 93 | 1021.5 |
| 20260831061547 | 60 | 307 | 0.0 | 0.0 | 0.00 | 0.04 | 0.00 | 93 | 1021.5 |
| 20260831060050 | 60 | 307 | 0.0 | 0.0 | 0.00 | 0.04 | 0.00 | 93 | 1021.3 |
| 20260831054544 | 61 | 307 | 0.0 | 0.0 | 0.00 | 0.04 | 0.00 | 93 | 1021.5 |
| 20260831053042 | 61 | 307 | 0.0 | 0.0 | 0.00 | 0.04 | 0.00 | 93 | 1021.2 |
| 20260831051551 | 62 | 307 | 0.0 | 0.0 | 0.00 | 0.04 | 0.00 | 93 | 1021.1 |
| 20260831050037 | 62 | 307 | 0.0 | 0.0 | 0.00 | 0.04 | 0.00 | 92 | 1021.1 |
| 20260831044536 | 63 | 307 | 0.0 | 0.0 | 0.00 | 0.04 | 0.00 | 92 | 1021.2 |
| 20260831043033 | 63 | 307 | 0.0 | 0.0 | 0.00 | 0.04 | 0.00 | 92 | 1021.1 |
| 20260831041535 | 63 | 326 | 0.0 | 0.0 | 0.00 | 0.04 | 0.00 | 92 | 1021.0 |
| 20260831040031 | 64 | 326 | 0.0 | 0.0 | 0.00 | 0.04 | 0.04 | 92 | 1020.9 |
| 20260831034529 | 64 | 326 | 0.0 | 0.0 | 0.00 | 0.04 | 0.04 | 91 | 1020.6 |
| 20260831033029 | 65 | 315 | 0.0 | 0.0 | 0.02 | 0.04 | 0.04 | 91 | 1020.6 |
| 20260831031530 | 66 | 315 | 0.0 | 0.0 | 0.04 | 0.04 | 0.04 | 91 | 1020.8 |